Other Surface Observations
Issued by NWS Tucson, AZ

Home | Current Version | Previous Version | Text Only | Print | Product List | Glossary On
Versions: 1 2 3 4 5 6 7 8 9 10 11 12 13 14 15 16 17 18 19 20 21 22 23 24 25 26 27 28 29 30 31 32 33 34 35 36 37 38 39 40 41 42 43 44 45 46 47 48 49 50
319
SXUS55 KTWC 120716
OSOTWC

WEATHER ROUNDUP FOR SOUTHEAST ARIZONA
NATIONAL WEATHER SERVICE TUCSON AZ
1215 AM MST FRI FEB 12 2016

AZZ504>506-514-120815-
LOCATION       SKY/WX    TMP DP  RH WIND       PRES   REMARKS
TUCSON         CLEAR     52  25  35 SE7       30.21S
DAVIS-MONTHAN  CLEAR     53  24  32 SE9       30.19S
CHILDRENS PARK N/A      N/A N/A  38 E3                PIMA CO DEQ
ALVERNON/22ND  N/A       59 N/A N/A SE4               PIMA CO DEQ
CHERRY/GLENN   N/A       57 N/A N/A E3                PIMA CO DEQ
TANGERINE      N/A       53 N/A N/A NE4               PIMA CO DEQ
CONTL RANCH    N/A       54  33  45 SW1               PIMA CO DEQ
GRANT/1ST      N/A       59  31  34 SE1               PIMA CO DEQ
CRAYCROFT/22ND N/A       59  28  30 SE3               PIMA CO DEQ
GOLFLINKS/KOLB N/A       59  28  30 SE4               PIMA CO DEQ
AJO/12TH       N/A       57  30  36 S7                PIMA CO DEQ
SAGUARO EAST   N/A       18 -13  22 SE4               PIMA CO DEQ
FAIRGROUNDS    N/A       53 N/A N/A SE12              PIMA CO DEQ
SAGUARO        N/A       54  24  31 N5                *SABINO CYN
SAN CARLOS     N/A       51  24  34 NW3               *SAN CARLOS
GREEN VALLEY   N/A       55  24  30 S4                PIMA CO DEQ
HORSE CAMP CYN N/A       57  19  22 E8                *ARAVAIPA CYN
RINCON MTNS    N/A       45  -5  12 CALM              *NR MANNING CAMP
$$

AZZ509>511-120815-
LOCATION       SKY/WX    TMP DP  RH WIND       PRES   REMARKS
SAFFORD        CLEAR     47  22  37 CALM      30.21S
STRAY HORSE    N/A       46  11  24 N5                *
TRAIL CABIN    N/A       47  17  30 E4                *N OF GRANVILLE
BLACK HILLS    N/A       51  24  34 SE2               *N OF FT THOMAS
DRY LAKE       N/A       48   8  19 N4                *NATANES MTNS
NOON CREEK     N/A       54  13  19 SW10G13           *PINALENO MTNS
COLUMBINE      N/A       26   7  43 CALM              *PINALENO MTNS
GUTHRIE        N/A       57  11  16 N11G15            *SW OF GUTHRIE
$$

AZZ502-503-513-120815-
LOCATION       SKY/WX    TMP DP  RH WIND       PRES   REMARKS
NOGALES        CLEAR     47  18  31 E5        30.24S
SELLS          N/A       59  20  22 NE5G10            *
SASABE         N/A       43  24  46 SW8               *ALTAR VLY
HOPKINS        N/A       56   8  14 CALM              *SANTA RITA MTNS
CARR CYN       N/A       51  12  21 SW3               *W OF HEREFORD
$$

AZZ507-508-512-120815-
LOCATION       SKY/WX    TMP DP  RH WIND       PRES   REMARKS
SIERRA VISTA   CLEAR     50  17  26 SW5       30.29R
DOUGLAS        PTCLDY    40  11  30 N9        30.26R WCI  34
EMPIRE MTNS    N/A       40  18  40 W5                *LAS CIENEGAS NCA
MULESHOE RANCH N/A       48  14  25 CALM              *PRESERVE
HEADQUARTERS   N/A       48  16  28 E5                *CHIRICAHUA MTNS
$$

.............................NOTES.............................
THIS IS AN AUTOMATED COLLECTIVE WITH MINIMAL QUALITY CONTROL.
PIMA CO DEQ SITES HAVE NONSTANDARD WIND SENSOR HEIGHTS.
PIMA CO DEQ SITES DO NOT REPORT WIND GUSTS.
* INDICATES WIND SENSORS LOCATED AT 20 FEET INSTEAD OF 33 FEET.
..............................KEY..............................
SKY/WX - SKY CONDITION/WEATHER
TMP    - TEMPERATURE IN FAHRENHEIT
DP     - DEWPOINT IN FAHRENHEIT
RH     - RELATIVE HUMIDITY IN PERCENT
WIND   - DIRECTION AND SPEED IN MILES PER HOUR (MPH)
VRB    - VARIABLE WIND DIRECTION
PRES   - MEAN SEA LEVEL PRESSURE IN INCHES OF MERCURY
         F - FALLING PRESSURE   R - RISING PRESSURE
         S - STEADY PRESSURE
VSB    - VISIBILITY IN MILES
HX     - HEAT INDEX IN FAHRENHEIT
WCI    - WIND CHILL INDEX IN FAHRENHEIT
N/A    - NOT AVAILABLE
AFB    - AIR FORCE BASE
         DAVIS-MONTHAN IS DAVIS-MONTHAN AIR FORCE BASE
CYN    - CANYON
MTNS   - MOUNTAINS
NCA    - NATIONAL CONSERVATION AREA
NR     - NEAR
VLY    - VALLEY
CONTL  - CONTINENTAL
PIMA CO DEQ - PIMA COUNTY DEPT OF ENVIRONMENTAL QUALITY



USA.gov is the U.S. government's official web portal to all federal, state and local government web resources and services.